Flag for Canada Weather past 2 weeks in Selkirk, Manitoba, Canada

Now
40 °F

Quite cool.


Feels Like: 38 °F
Forecast: 39 / 58 °F
Wind: 3 mph from East

Location: Winnipeg The Forks

Current Time: Apr 1, 2015 at 1:13:14 AM

Latest Report: Apr 1, 2015 at 12:00 AM


Visibility: N/A

Pressure: 29.77 "Hg

Humidity: 65%

Dew point: 29 °F

Location of SelkirkLocation

Historic Weather in Selkirk — Graph

°F

Selkirk temperature yesterday

Maximum temperature yesterday: 53 °F (at 5:00 PM)
Minimum temperature yesterday: 31 °F (at 7:00 AM)
Average temperature yesterday: 43 °F

Past Weeks' High & Low Weather Summary

 TemperatureHumidityPressure
High53 °F (Mar 31, 5:00 PM)100% (Mar 24, 8:00 AM)30.48 "Hg (Mar 24, 8:00 AM)
Low7 °F (Mar 21, 4:00 AM)30% (Mar 22, 4:00 PM)29.44 "Hg (Mar 29, 2:00 AM)
Average32 °F65%30.09 "Hg
* Reported Midnight between Mar 16 and Mar 17 — Midnight between Mar 31 and Apr 1, Selkirk, Weather by CustomWeather, © 2015

Note: Actual official high and low records may vary slightly from our data, if they occured in-between our weather recording intervals... More about our weather records

Advertising

Selkirk weather history for previous 24 hours

 ConditionsComfort  
Time TempWeatherWind HumidityBarometerVisibility
12:00 AM
Wed, Apr 1
40 °FQuite cool.3 mph65%29.77 "HgN/A
11:00 PM
Tue, Mar 31
42 °FQuite cool.5 mph65%29.80 "HgN/A
10:00 PM42 °FQuite cool.5 mph73%29.81 "HgN/A
9:00 PM43 °FQuite cool.2 mph71%29.84 "HgN/A
8:00 PM44 °FQuite cool.3 mph73%29.84 "HgN/A
7:00 PM48 °FCool.6 mph63%29.85 "HgN/A
6:00 PM51 °FCool.3 mph56%29.85 "HgN/A
5:00 PM53 °FCool.5 mph49%29.86 "HgN/A
4:00 PM52 °FCool.5 mph49%29.88 "HgN/A
3:00 PM53 °FCool.3 mph48%29.89 "HgN/A
2:00 PM51 °FCool.5 mph51%29.90 "HgN/A
1:00 PM50 °FCool.5 mph52%29.91 "HgN/A
12:00 PM47 °FCool.3 mph60%29.92 "HgN/A
11:00 AM44 °FQuite cool.6 mph70%29.92 "HgN/A
10:00 AM40 °FQuite cool.3 mph76%29.93 "HgN/A
9:00 AM38 °FChilly.2 mph77%29.91 "HgN/A
8:00 AM36 °FChilly.3 mph92%29.91 "HgN/A
7:00 AM31 °FChilly.No wind93%29.90 "HgN/A
6:00 AM33 °FChilly.1 mph93%29.88 "HgN/A
5:00 AM33 °FChilly.1 mph95%29.87 "HgN/A
4:00 AM35 °FChilly.2 mph93%29.86 "HgN/A
3:00 AM38 °FChilly.2 mph84%29.85 "HgN/A
2:00 AM40 °FChilly.5 mph80%29.83 "HgN/A
1:00 AM39 °FChilly.3 mph79%29.83 "HgN/A
Weather by CustomWeather, © 2015

See weather overviewHow to use our weather pages